Time,TemperatureF,DewpointF,PressureIn,WindDirection,WindDirectionDegrees,WindSpeedMPH,WindSpeedGustMPH,Humidity,HourlyPrecipIn,Conditions,Clouds,dailyrainin,SoftwareType,DateUTC
2013-06-10 10:34:00,65.4,65.1,29.98,East,89,1.0,1.0,99,0.00,,,0.27,Wunderground v.1.15,2013-06-10 14:34:00,
2013-06-10 10:35:00,65.4,65.1,29.98,East,97,1.0,8.0,99,0.00,,,0.27,Wunderground v.1.15,2013-06-10 14:35:00,
2013-06-10 10:37:00,65.5,65.2,29.98,East,96,1.0,8.0,99,0.00,,,0.27,Wunderground v.1.15,2013-06-10 14:37:00,
2013-06-10 10:41:00,65.7,65.4,29.98,East,97,1.0,8.0,99,0.00,,,0.28,Wunderground v.1.15,2013-06-10 14:41:00,
2013-06-10 10:42:00,65.7,65.4,29.98,East,92,0.0,8.0,99,0.00,,,0.28,Wunderground v.1.15,2013-06-10 14:42:00,
2013-06-10 10:44:00,65.7,65.4,29.97,East,94,1.0,9.0,99,0.00,,,0.28,Wunderground v.1.15,2013-06-10 14:44:00,
2013-06-10 10:48:00,65.7,65.4,29.98,ESE,106,1.0,9.0,99,0.00,,,0.28,Wunderground v.1.15,2013-06-10 14:48:00,
2013-06-10 10:49:00,65.7,65.4,29.98,ESE,117,1.0,9.0,99,0.00,,,0.28,Wunderground v.1.15,2013-06-10 14:49:00,
2013-06-10 10:50:00,65.7,65.4,29.98,ESE,117,1.0,9.0,99,0.00,,,0.28,Wunderground v.1.15,2013-06-10 14:50:00,
2013-06-10 10:51:00,65.8,65.5,29.98,ESE,113,1.0,9.0,99,0.00,,,0.28,Wunderground v.1.15,2013-06-10 14:51:00,
2013-06-10 10:54:00,65.8,65.5,29.97,ENE,76,1.0,9.0,99,0.00,,,0.28,Wunderground v.1.15,2013-06-10 14:54:00,
2013-06-10 10:55:00,65.8,65.5,29.97,East,80,1.0,9.0,99,0.00,,,0.28,Wunderground v.1.15,2013-06-10 14:55:00,
2013-06-10 10:56:00,65.8,65.5,29.97,East,80,1.0,9.0,99,0.00,,,0.28,Wunderground v.1.15,2013-06-10 14:56:00,
2013-06-10 10:59:00,65.8,65.5,29.97,East,96,1.0,9.0,99,0.00,,,0.28,Wunderground v.1.15,2013-06-10 14:59:00,
2013-06-10 11:01:00,65.8,65.5,29.97,East,98,1.0,9.0,99,0.00,,,0.28,Wunderground v.1.15,2013-06-10 15:01:00,
2013-06-10 11:03:00,65.8,65.5,29.97,East,94,1.0,9.0,99,0.00,,,0.29,Wunderground v.1.15,2013-06-10 15:03:00,
2013-06-10 11:08:00,65.8,65.5,29.97,East,92,1.0,9.0,99,0.00,,,0.29,Wunderground v.1.15,2013-06-10 15:08:00,
2013-06-10 11:09:00,65.8,65.5,29.97,East,93,1.0,9.0,99,0.00,,,0.29,Wunderground v.1.15,2013-06-10 15:09:00,
2013-06-10 11:10:00,65.8,65.5,29.97,East,92,1.0,1.0,99,0.00,,,0.29,Wunderground v.1.15,2013-06-10 15:10:00,
2013-06-10 11:14:00,65.9,65.6,29.97,East,79,0.0,9.0,99,0.00,,,0.29,Wunderground v.1.15,2013-06-10 15:14:00,
2013-06-10 11:15:00,65.9,65.6,29.97,East,80,0.0,9.0,99,0.00,,,0.29,Wunderground v.1.15,2013-06-10 15:15:00,
2013-06-10 11:16:00,65.9,65.6,29.97,East,80,0.0,9.0,99,0.00,,,0.29,Wunderground v.1.15,2013-06-10 15:16:00,
2013-06-10 11:17:00,65.9,65.6,29.97,ESE,110,0.0,9.0,99,0.00,,,0.29,Wunderground v.1.15,2013-06-10 15:17:00,
2013-06-10 11:20:00,66.0,65.7,29.97,East,100,0.0,8.0,99,0.00,,,0.29,Wunderground v.1.15,2013-06-10 15:20:00,
2013-06-10 11:21:00,66.0,65.7,29.97,East,100,0.0,8.0,99,0.00,,,0.29,Wunderground v.1.15,2013-06-10 15:21:00,
2013-06-10 11:22:00,66.1,65.8,29.97,East,100,0.0,8.0,99,0.00,,,0.29,Wunderground v.1.15,2013-06-10 15:22:00,
2013-06-10 11:25:00,66.1,65.8,29.97,East,83,0.0,8.0,99,0.00,,,0.29,Wunderground v.1.15,2013-06-10 15:25:00,
2013-06-10 11:27:00,66.1,65.8,29.97,East,80,1.0,8.0,99,0.00,,,0.29,Wunderground v.1.15,2013-06-10 15:27:00,
2013-06-10 11:28:00,66.1,65.8,29.97,East,79,1.0,8.0,99,0.00,,,0.29,Wunderground v.1.15,2013-06-10 15:28:00,
2013-06-10 11:30:00,66.1,65.8,29.97,East,79,1.0,1.0,99,0.00,,,0.29,Wunderground v.1.15,2013-06-10 15:30:00,
2013-06-10 11:33:00,66.1,65.8,29.97,NE,56,1.0,8.0,99,0.00,,,0.30,Wunderground v.1.15,2013-06-10 15:33:00,
2013-06-10 11:34:00,66.1,65.8,29.97,ENE,57,1.0,8.0,99,0.00,,,0.30,Wunderground v.1.15,2013-06-10 15:34:00,
2013-06-10 11:35:00,66.1,65.8,29.96,NE,56,0.0,8.0,99,0.00,,,0.30,Wunderground v.1.15,2013-06-10 15:35:00,
2013-06-10 11:36:00,66.2,65.9,29.97,ENE,57,0.0,8.0,99,0.00,,,0.30,Wunderground v.1.15,2013-06-10 15:36:00,
2013-06-10 11:41:00,66.3,66.0,29.96,ESE,111,0.0,8.0,99,0.00,,,0.30,Wunderground v.1.15,2013-06-10 15:41:00,
2013-06-10 11:42:00,66.3,66.0,29.96,ESE,111,0.0,8.0,99,0.00,,,0.30,Wunderground v.1.15,2013-06-10 15:42:00,
2013-06-10 11:45:00,66.3,66.0,29.96,East,92,0.0,8.0,99,0.05,,,0.31,Wunderground v.1.15,2013-06-10 15:45:00,
2013-06-10 11:46:00,66.4,66.1,29.96,East,93,1.0,8.0,99,0.05,,,0.31,Wunderground v.1.15,2013-06-10 15:46:00,
2013-06-10 11:48:00,66.4,66.1,29.96,East,80,0.0,8.0,99,0.05,,,0.31,Wunderground v.1.15,2013-06-10 15:48:00,
2013-06-10 11:52:00,66.5,66.2,29.96,East,91,1.0,6.0,99,0.05,,,0.31,Wunderground v.1.15,2013-06-10 15:52:00,
2013-06-10 11:53:00,66.5,66.2,29.96,East,91,1.0,6.0,99,0.05,,,0.31,Wunderground v.1.15,2013-06-10 15:53:00,
2013-06-10 11:54:00,66.5,66.2,29.96,East,91,1.0,6.0,99,0.05,,,0.31,Wunderground v.1.15,2013-06-10 15:54:00,
2013-06-10 11:57:00,66.6,66.3,29.96,NNE,26,1.0,6.0,99,0.05,,,0.32,Wunderground v.1.15,2013-06-10 15:57:00,
2013-06-10 11:59:00,66.6,66.3,29.96,NE,40,1.0,6.0,99,0.05,,,0.32,Wunderground v.1.15,2013-06-10 15:59:00,
2013-06-10 12:03:00,66.8,66.5,29.96,NE,40,1.0,6.0,99,0.08,,,0.33,Wunderground v.1.15,2013-06-10 16:03:00,
2013-06-10 12:04:00,66.8,66.5,29.95,East,95,1.0,6.0,99,0.08,,,0.33,Wunderground v.1.15,2013-06-10 16:04:00,
2013-06-10 12:07:00,66.9,66.6,29.95,ENE,68,1.0,6.0,99,0.08,,,0.33,Wunderground v.1.15,2013-06-10 16:07:00,
2013-06-10 12:08:00,67.0,66.7,29.95,ENE,68,0.0,6.0,99,0.08,,,0.33,Wunderground v.1.15,2013-06-10 16:08:00,
2013-06-10 12:10:00,67.1,66.8,29.95,ENE,68,0.0,6.0,99,0.08,,,0.33,Wunderground v.1.15,2013-06-10 16:10:00,
2013-06-10 12:11:00,67.1,66.8,29.95,ENE,68,0.0,6.0,99,0.07,,,0.33,Wunderground v.1.15,2013-06-10 16:11:00,
2013-06-10 12:13:00,67.1,66.8,29.95,ENE,76,1.0,8.0,99,0.07,,,0.34,Wunderground v.1.15,2013-06-10 16:13:00,
2013-06-10 12:15:00,67.1,66.8,29.95,ENE,59,0.0,8.0,99,0.07,,,0.34,Wunderground v.1.15,2013-06-10 16:15:00,
2013-06-10 12:17:00,67.1,66.8,29.95,ENE,60,0.0,8.0,99,0.07,,,0.34,Wunderground v.1.15,2013-06-10 16:17:00,
2013-06-10 12:18:00,67.1,66.8,29.95,ENE,65,1.0,8.0,99,0.11,,,0.35,Wunderground v.1.15,2013-06-10 16:18:00,
2013-06-10 12:19:00,67.1,66.8,29.95,ENE,65,1.0,8.0,99,0.11,,,0.35,Wunderground v.1.15,2013-06-10 16:19:00,
2013-06-10 12:22:00,67.2,66.9,29.95,ENE,67,1.0,8.0,99,0.13,,,0.36,Wunderground v.1.15,2013-06-10 16:22:00,
2013-06-10 12:23:00,67.2,66.9,29.94,East,99,1.0,8.0,99,0.46,,,0.37,Wunderground v.1.15,2013-06-10 16:23:00,
2013-06-10 12:24:00,67.2,66.9,29.94,East,99,1.0,8.0,99,0.30,,,0.37,Wunderground v.1.15,2013-06-10 16:24:00,
2013-06-10 12:26:00,67.2,66.9,29.94,East,99,1.0,8.0,99,0.15,,,0.37,Wunderground v.1.15,2013-06-10 16:26:00,
2013-06-10 12:29:00,67.3,67.0,29.94,East,99,0.0,8.0,99,0.08,,,0.37,Wunderground v.1.15,2013-06-10 16:29:00,
2013-06-10 12:31:00,67.4,67.1,29.94,East,92,0.0,8.0,99,0.08,,,0.38,Wunderground v.1.15,2013-06-10 16:31:00,
2013-06-10 12:32:00,67.3,67.0,29.94,East,81,0.0,8.0,99,0.08,,,0.38,Wunderground v.1.15,2013-06-10 16:32:00,
2013-06-10 12:33:00,67.3,67.0,29.94,East,85,1.0,8.0,99,0.17,,,0.38,Wunderground v.1.15,2013-06-10 16:33:00,
2013-06-10 12:35:00,67.2,66.9,29.94,SE,125,1.0,8.0,99,0.17,,,0.39,Wunderground v.1.15,2013-06-10 16:35:00,
2013-06-10 12:40:00,67.3,67.0,29.94,ESE,110,1.0,1.0,99,0.25,,,0.41,Wunderground v.1.15,2013-06-10 16:40:00,
2013-06-10 12:41:00,67.4,67.1,29.94,ESE,110,1.0,8.0,99,0.25,,,0.41,Wunderground v.1.15,2013-06-10 16:41:00,
2013-06-10 12:44:00,67.4,67.1,29.94,NE,38,0.0,8.0,99,0.15,,,0.42,Wunderground v.1.15,2013-06-10 16:44:00,
2013-06-10 12:45:00,67.4,67.4,29.94,NE,38,0.0,8.0,100,0.15,,,0.42,Wunderground v.1.15,2013-06-10 16:45:00,
2013-06-10 12:46:00,67.4,67.4,29.94,NE,38,0.0,8.0,100,0.19,,,0.42,Wunderground v.1.15,2013-06-10 16:46:00,
2013-06-10 12:47:00,67.5,67.5,29.94,NE,38,0.0,8.0,100,0.19,,,0.43,Wunderground v.1.15,2013-06-10 16:47:00,
2013-06-10 12:50:00,67.5,67.5,29.94,ESE,121,0.0,6.0,100,0.16,,,0.43,Wunderground v.1.15,2013-06-10 16:50:00,
2013-06-10 12:51:00,67.5,67.5,29.94,ENE,60,0.0,6.0,100,0.12,,,0.43,Wunderground v.1.15,2013-06-10 16:51:00,
2013-06-10 12:53:00,67.5,67.5,29.94,NNE,22,0.0,6.0,100,0.11,,,0.44,Wunderground v.1.15,2013-06-10 16:53:00,
2013-06-10 12:54:00,67.6,67.6,29.94,NNE,22,0.0,6.0,100,0.11,,,0.44,Wunderground v.1.15,2013-06-10 16:54:00,
2013-06-10 12:57:00,67.6,67.6,29.93,East,101,0.0,6.0,100,0.13,,,0.45,Wunderground v.1.15,2013-06-10 16:57:00,
2013-06-10 12:58:00,67.7,67.7,29.93,East,96,0.0,6.0,100,0.13,,,0.45,Wunderground v.1.15,2013-06-10 16:58:00,
2013-06-10 12:59:00,67.7,67.4,29.93,NE,51,0.0,6.0,99,0.13,,,0.45,Wunderground v.1.15,2013-06-10 16:59:00,
2013-06-10 13:02:00,67.8,67.5,29.93,East,82,1.0,6.0,99,0.12,,,0.46,Wunderground v.1.15,2013-06-10 17:02:00,
2013-06-10 13:03:00,67.8,67.5,29.92,East,82,0.0,6.0,99,0.12,,,0.46,Wunderground v.1.15,2013-06-10 17:03:00,
2013-06-10 13:05:00,67.8,67.5,29.92,East,82,0.0,6.0,99,0.26,,,0.47,Wunderground v.1.15,2013-06-10 17:05:00,
2013-06-10 13:07:00,67.9,67.6,29.92,NE,34,1.0,6.0,99,0.18,,,0.47,Wunderground v.1.15,2013-06-10 17:07:00,
2013-06-10 13:09:00,67.9,67.6,29.92,ESE,114,1.0,6.0,99,0.13,,,0.48,Wunderground v.1.15,2013-06-10 17:09:00,
2013-06-10 13:10:00,68.0,67.7,29.92,NE,54,0.0,6.0,99,0.13,,,0.48,Wunderground v.1.15,2013-06-10 17:10:00,
2013-06-10 13:11:00,68.0,67.7,29.92,SW,219,0.0,6.0,99,0.13,,,0.48,Wunderground v.1.15,2013-06-10 17:11:00,
2013-06-10 13:12:00,68.0,67.7,29.92,SW,218,1.0,6.0,99,0.13,,,0.48,Wunderground v.1.15,2013-06-10 17:12:00,
2013-06-10 13:14:00,68.0,68.0,29.92,SW,218,0.0,7.0,100,0.15,,,0.49,Wunderground v.1.15,2013-06-10 17:14:00,
2013-06-10 13:16:00,68.1,68.1,29.91,SE,134,0.0,7.0,100,0.15,,,0.49,Wunderground v.1.15,2013-06-10 17:16:00,
2013-06-10 13:17:00,68.1,68.1,29.91,SE,140,0.0,7.0,100,0.12,,,0.49,Wunderground v.1.15,2013-06-10 17:17:00,
2013-06-10 13:21:00,68.3,68.3,29.91,NNE,21,1.0,7.0,100,0.07,,,0.49,Wunderground v.1.15,2013-06-10 17:21:00,
2013-06-10 13:22:00,68.3,68.3,29.91,NNE,21,1.0,7.0,100,0.06,,,0.49,Wunderground v.1.15,2013-06-10 17:22:00,
2013-06-10 13:23:00,68.5,68.5,29.91,NNE,21,1.0,7.0,100,0.05,,,0.49,Wunderground v.1.15,2013-06-10 17:23:00,
2013-06-10 13:28:00,68.4,68.4,29.91,ESE,104,0.0,7.0,100,0.04,,,0.50,Wunderground v.1.15,2013-06-10 17:28:00,
2013-06-10 13:29:00,68.4,68.4,29.91,ESE,104,0.0,7.0,100,0.04,,,0.50,Wunderground v.1.15,2013-06-10 17:29:00,
2013-06-10 13:31:00,68.4,68.4,29.90,WNW,300,0.0,7.0,100,0.04,,,0.50,Wunderground v.1.15,2013-06-10 17:31:00,
2013-06-10 13:33:00,68.4,68.4,29.90,ENE,72,0.0,7.0,100,0.04,,,0.50,Wunderground v.1.15,2013-06-10 17:33:00,
2013-06-10 13:34:00,68.4,68.4,29.90,North,355,0.0,7.0,100,0.04,,,0.50,Wunderground v.1.15,2013-06-10 17:34:00,
2013-06-10 13:37:00,68.4,68.4,29.90,ENE,78,1.0,7.0,100,0.08,,,0.51,Wunderground v.1.15,2013-06-10 17:37:00,
2013-06-10 13:40:00,68.4,68.4,29.90,East,80,1.0,1.0,100,0.08,,,0.51,Wunderground v.1.15,2013-06-10 17:40:00,
2013-06-10 13:41:00,68.4,68.4,29.90,East,80,1.0,7.0,100,0.08,,,0.51,Wunderground v.1.15,2013-06-10 17:41:00,
2013-06-10 13:42:00,68.4,68.4,29.90,East,80,1.0,7.0,100,0.08,,,0.51,Wunderground v.1.15,2013-06-10 17:42:00,
2013-06-10 13:44:00,68.5,68.5,29.90,East,88,1.0,8.0,100,0.07,,,0.51,Wunderground v.1.15,2013-06-10 17:44:00,
2013-06-10 13:47:00,68.5,68.5,29.89,ESE,102,1.0,8.0,100,0.05,,,0.51,Wunderground v.1.15,2013-06-10 17:47:00,
2013-06-10 13:52:00,68.7,68.7,29.89,SE,128,0.0,8.0,100,0.04,,,0.51,Wunderground v.1.15,2013-06-10 17:52:00,
2013-06-10 13:53:00,68.6,68.6,29.89,SSE,157,0.0,8.0,100,0.00,,,0.51,Wunderground v.1.15,2013-06-10 17:53:00,
2013-06-10 13:58:00,68.6,68.6,29.89,WNW,295,0.0,8.0,100,0.00,,,0.52,Wunderground v.1.15,2013-06-10 17:58:00,
2013-06-10 14:00:00,68.6,68.6,29.89,NW,304,0.0,8.0,100,0.00,,,0.52,Wunderground v.1.15,2013-06-10 18:00:00,
2013-06-10 14:01:00,68.6,68.6,29.89,NW,304,0.0,8.0,100,0.00,,,0.52,Wunderground v.1.15,2013-06-10 18:01:00,
2013-06-10 14:06:00,68.8,68.8,29.89,SSE,165,0.0,8.0,100,0.09,,,0.53,Wunderground v.1.15,2013-06-10 18:06:00,
2013-06-10 14:07:00,68.8,68.8,29.89,SSE,165,0.0,8.0,100,0.09,,,0.53,Wunderground v.1.15,2013-06-10 18:07:00,
2013-06-10 14:09:00,68.9,68.9,29.88,WSW,247,1.0,8.0,100,0.09,,,0.53,Wunderground v.1.15,2013-06-10 18:09:00,
2013-06-10 14:10:00,68.9,68.9,29.89,West,261,1.0,1.0,100,0.09,,,0.53,Wunderground v.1.15,2013-06-10 18:10:00,
2013-06-10 14:11:00,68.9,68.9,29.89,WSW,238,1.0,8.0,100,0.08,,,0.53,Wunderground v.1.15,2013-06-10 18:11:00,
2013-06-10 14:12:00,69.0,69.0,29.89,WSW,238,1.0,8.0,100,0.07,,,0.53,Wunderground v.1.15,2013-06-10 18:12:00,
2013-06-10 14:13:00,69.0,69.0,29.89,NNW,336,1.0,8.0,100,0.06,,,0.53,Wunderground v.1.15,2013-06-10 18:13:00,
2013-06-10 14:15:00,69.1,69.1,29.88,WNW,288,1.0,8.0,100,0.05,,,0.53,Wunderground v.1.15,2013-06-10 18:15:00,
2013-06-10 14:17:00,69.1,69.1,29.88,WNW,290,1.0,8.0,100,0.04,,,0.53,Wunderground v.1.15,2013-06-10 18:17:00,
2013-06-10 14:18:00,69.2,69.2,29.88,WNW,291,1.0,8.0,100,0.04,,,0.53,Wunderground v.1.15,2013-06-10 18:18:00,
2013-06-10 14:19:00,69.3,69.3,29.88,WNW,291,1.0,8.0,100,0.04,,,0.53,Wunderground v.1.15,2013-06-10 18:19:00,
2013-06-10 14:21:00,69.4,69.4,29.88,WSW,238,1.0,6.0,100,0.00,,,0.53,Wunderground v.1.15,2013-06-10 18:21:00,
2013-06-10 14:25:00,69.7,69.7,29.88,WNW,287,0.0,6.0,100,0.00,,,0.53,Wunderground v.1.15,2013-06-10 18:25:00,
2013-06-10 14:26:00,69.8,69.8,29.88,WNW,290,0.0,6.0,100,0.00,,,0.53,Wunderground v.1.15,2013-06-10 18:26:00,
2013-06-10 14:29:00,70.4,70.4,29.88,West,278,0.0,6.0,100,0.00,,,0.53,Wunderground v.1.15,2013-06-10 18:29:00,
2013-06-10 14:30:00,70.4,70.4,29.88,West,278,0.0,6.0,100,0.00,,,0.53,Wunderground v.1.15,2013-06-10 18:30:00,
2013-06-10 14:33:00,70.4,70.4,29.88,NW,311,0.0,6.0,100,0.00,,,0.53,Wunderground v.1.15,2013-06-10 18:33:00,
2013-06-10 14:34:00,70.5,70.5,29.88,WNW,286,0.0,6.0,100,0.00,,,0.53,Wunderground v.1.15,2013-06-10 18:34:00,
2013-06-10 14:38:00,70.6,70.6,29.87,NNW,335,0.0,6.0,100,0.00,,,0.53,Wunderground v.1.15,2013-06-10 18:38:00,
2013-06-10 14:39:00,70.7,70.7,29.87,NE,40,0.0,6.0,100,0.00,,,0.53,Wunderground v.1.15,2013-06-10 18:39:00,
2013-06-10 14:40:00,70.7,70.7,29.87,ESE,105,0.0,6.0,100,0.00,,,0.53,Wunderground v.1.15,2013-06-10 18:40:00,
2013-06-10 14:41:00,70.6,70.6,29.87,ENE,70,0.0,6.0,100,0.00,,,0.53,Wunderground v.1.15,2013-06-10 18:41:00,
2013-06-10 14:42:00,70.6,70.6,29.87,ENE,69,0.0,6.0,100,0.00,,,0.53,Wunderground v.1.15,2013-06-10 18:42:00,
2013-06-10 14:45:00,70.7,70.7,29.87,ENE,75,1.0,7.0,100,0.00,,,0.53,Wunderground v.1.15,2013-06-10 18:45:00,
2013-06-10 14:46:00,70.6,70.6,29.87,NNE,27,1.0,7.0,100,0.00,,,0.53,Wunderground v.1.15,2013-06-10 18:46:00,
2013-06-10 14:48:00,70.8,70.8,29.87,North,360,1.0,7.0,100,0.00,,,0.53,Wunderground v.1.15,2013-06-10 18:48:00,
2013-06-10 14:52:00,71.0,71.0,29.87,NW,320,0.0,7.0,100,0.00,,,0.53,Wunderground v.1.15,2013-06-10 18:52:00,
2013-06-10 14:53:00,71.1,71.1,29.87,NW,320,0.0,7.0,100,0.00,,,0.53,Wunderground v.1.15,2013-06-10 18:53:00,
2013-06-10 14:54:00,71.2,71.2,29.87,NW,320,0.0,7.0,100,0.00,,,0.53,Wunderground v.1.15,2013-06-10 18:54:00,
2013-06-10 14:55:00,71.3,71.3,29.87,NW,320,0.0,7.0,100,0.00,,,0.53,Wunderground v.1.15,2013-06-10 18:55:00,
2013-06-10 14:58:00,71.4,71.4,29.86,NW,310,0.0,7.0,100,0.00,,,0.53,Wunderground v.1.15,2013-06-10 18:58:00,
2013-06-10 14:59:00,71.4,71.4,29.86,WNW,299,0.0,7.0,100,0.00,,,0.53,Wunderground v.1.15,2013-06-10 18:59:00,
2013-06-10 15:01:00,71.4,71.4,29.86,WNW,302,0.0,7.0,100,0.00,,,0.53,Wunderground v.1.15,2013-06-10 19:01:00,
2013-06-10 15:02:00,71.4,71.4,29.86,West,281,0.0,7.0,100,0.00,,,0.53,Wunderground v.1.15,2013-06-10 19:02:00,
2013-06-10 15:03:00,71.4,71.4,29.86,West,281,0.0,7.0,100,0.00,,,0.53,Wunderground v.1.15,2013-06-10 19:03:00,
2013-06-10 15:05:00,71.4,71.4,29.86,East,84,0.0,7.0,100,0.00,,,0.53,Wunderground v.1.15,2013-06-10 19:05:00,
2013-06-10 15:06:00,71.3,71.3,29.86,East,83,0.0,7.0,100,0.00,,,0.53,Wunderground v.1.15,2013-06-10 19:06:00,
2013-06-10 15:09:00,71.4,71.4,29.86,NNW,327,0.0,7.0,100,0.00,,,0.53,Wunderground v.1.15,2013-06-10 19:09:00,
2013-06-10 15:10:00,71.4,71.4,29.86,West,277,1.0,1.0,100,0.00,,,0.53,Wunderground v.1.15,2013-06-10 19:10:00,
2013-06-10 15:11:00,71.3,71.3,29.86,West,277,1.0,7.0,100,0.00,,,0.53,Wunderground v.1.15,2013-06-10 19:11:00,
2013-06-10 15:12:00,71.4,71.4,29.86,West,277,1.0,7.0,100,0.00,,,0.53,Wunderground v.1.15,2013-06-10 19:12:00,
2013-06-10 15:16:00,71.5,71.2,29.85,NW,311,1.0,7.0,99,0.00,,,0.53,Wunderground v.1.15,2013-06-10 19:16:00,
2013-06-10 15:17:00,71.5,71.2,29.85,NW,311,1.0,7.0,99,0.00,,,0.53,Wunderground v.1.15,2013-06-10 19:17:00,
2013-06-10 15:18:00,71.5,71.2,29.85,NNW,341,1.0,7.0,99,0.00,,,0.53,Wunderground v.1.15,2013-06-10 19:18:00,
2013-06-10 15:19:00,71.5,71.2,29.85,NW,322,0.0,7.0,99,0.00,,,0.53,Wunderground v.1.15,2013-06-10 19:19:00,
2013-06-10 15:24:00,71.5,71.2,29.85,WSW,258,0.0,7.0,99,0.00,,,0.53,Wunderground v.1.15,2013-06-10 19:24:00,
2013-06-10 15:25:00,71.5,71.2,29.85,WSW,257,0.0,7.0,99,0.00,,,0.53,Wunderground v.1.15,2013-06-10 19:25:00,
2013-06-10 15:28:00,71.5,71.2,29.84,NNE,28,0.0,7.0,99,0.00,,,0.53,Wunderground v.1.15,2013-06-10 19:28:00,
2013-06-10 15:29:00,71.5,71.2,29.84,NNE,28,0.0,7.0,99,0.00,,,0.53,Wunderground v.1.15,2013-06-10 19:29:00,
2013-06-10 15:30:00,71.5,71.2,29.84,NNE,28,0.0,7.0,99,0.00,,,0.53,Wunderground v.1.15,2013-06-10 19:30:00,
2013-06-10 15:35:00,71.7,71.4,29.84,East,86,0.0,7.0,99,0.00,,,0.53,Wunderground v.1.15,2013-06-10 19:35:00,
2013-06-10 15:37:00,71.5,71.2,29.84,East,99,0.0,7.0,99,0.00,,,0.53,Wunderground v.1.15,2013-06-10 19:37:00,
2013-06-10 15:39:00,71.3,71.0,29.84,NNE,32,0.0,7.0,99,0.00,,,0.53,Wunderground v.1.15,2013-06-10 19:39:00,
2013-06-10 15:41:00,71.3,71.0,29.83,West,276,0.0,7.0,99,0.00,,,0.53,Wunderground v.1.15,2013-06-10 19:41:00,
2013-06-10 15:42:00,71.3,71.0,29.83,West,279,1.0,7.0,99,0.00,,,0.53,Wunderground v.1.15,2013-06-10 19:42:00,
2013-06-10 15:45:00,71.4,71.1,29.83,East,95,1.0,7.0,99,0.00,,,0.53,Wunderground v.1.15,2013-06-10 19:45:00,
2013-06-10 15:47:00,71.4,71.1,29.84,NW,306,1.0,7.0,99,0.00,,,0.53,Wunderground v.1.15,2013-06-10 19:47:00,
2013-06-10 15:49:00,71.5,71.2,29.83,North,5,0.0,7.0,99,0.00,,,0.53,Wunderground v.1.15,2013-06-10 19:49:00,
2013-06-10 15:53:00,71.8,71.5,29.83,ESE,115,0.0,5.0,99,0.00,,,0.53,Wunderground v.1.15,2013-06-10 19:53:00,
2013-06-10 15:55:00,72.1,71.8,29.83,ENE,67,0.0,5.0,99,0.00,,,0.53,Wunderground v.1.15,2013-06-10 19:55:00,
2013-06-10 15:56:00,72.3,72.0,29.83,ENE,66,0.0,5.0,99,0.00,,,0.53,Wunderground v.1.15,2013-06-10 19:56:00,
2013-06-10 16:00:00,72.7,72.4,29.83,NW,309,0.0,5.0,99,0.00,,,0.53,Wunderground v.1.15,2013-06-10 20:00:00,
2013-06-10 16:01:00,72.6,72.3,29.83,NW,309,0.0,5.0,99,0.00,,,0.53,Wunderground v.1.15,2013-06-10 20:01:00,
2013-06-10 16:03:00,72.6,72.3,29.82,NW,319,0.0,5.0,99,0.00,,,0.53,Wunderground v.1.15,2013-06-10 20:03:00,
2013-06-10 16:04:00,72.6,72.0,29.82,NW,319,0.0,5.0,98,0.00,,,0.53,Wunderground v.1.15,2013-06-10 20:04:00,
2013-06-10 16:07:00,72.7,72.1,29.82,WNW,301,0.0,5.0,98,0.00,,,0.53,Wunderground v.1.15,2013-06-10 20:07:00,
2013-06-10 16:09:00,72.5,71.9,29.82,North,11,1.0,5.0,98,0.00,,,0.53,Wunderground v.1.15,2013-06-10 20:09:00,
2013-06-10 16:11:00,72.4,71.8,29.82,NNW,342,1.0,5.0,98,0.00,,,0.53,Wunderground v.1.15,2013-06-10 20:11:00,
2013-06-10 16:14:00,72.2,71.6,29.82,NNE,17,1.0,5.0,98,0.00,,,0.53,Wunderground v.1.15,2013-06-10 20:14:00,
2013-06-10 16:16:00,72.0,71.4,29.82,NNE,17,1.0,5.0,98,0.00,,,0.53,Wunderground v.1.15,2013-06-10 20:16:00,
2013-06-10 16:17:00,72.0,71.4,29.82,NNE,17,1.0,5.0,98,0.00,,,0.53,Wunderground v.1.15,2013-06-10 20:17:00,
2013-06-10 16:21:00,71.9,71.3,29.82,ENE,65,0.0,5.0,98,0.00,,,0.53,Wunderground v.1.15,2013-06-10 20:21:00,
2013-06-10 16:22:00,71.9,71.3,29.82,NW,321,0.0,5.0,98,0.00,,,0.53,Wunderground v.1.15,2013-06-10 20:22:00,
2013-06-10 16:23:00,72.1,71.5,29.82,NW,321,0.0,5.0,98,0.00,,,0.53,Wunderground v.1.15,2013-06-10 20:23:00,
2013-06-10 16:26:00,72.4,71.8,29.82,NNW,340,0.0,5.0,98,0.00,,,0.53,Wunderground v.1.15,2013-06-10 20:26:00,
2013-06-10 16:29:00,72.4,71.8,29.82,NNW,337,0.0,5.0,98,0.00,,,0.54,Wunderground v.1.15,2013-06-10 20:29:00,
2013-06-10 16:30:00,72.3,71.7,29.82,NNW,337,0.0,5.0,98,0.00,,,0.54,Wunderground v.1.15,2013-06-10 20:30:00,
2013-06-10 16:34:00,72.1,71.2,29.82,NNW,338,0.0,5.0,97,0.00,,,0.54,Wunderground v.1.15,2013-06-10 20:34:00,
2013-06-10 16:37:00,72.0,71.4,29.81,NNW,346,0.0,5.0,98,0.00,,,0.54,Wunderground v.1.15,2013-06-10 20:37:00,
2013-06-10 16:38:00,72.0,71.4,29.81,NNW,346,0.0,5.0,98,0.00,,,0.54,Wunderground v.1.15,2013-06-10 20:38:00,
2013-06-10 16:40:00,72.1,71.5,29.81,NNW,345,0.0,5.0,98,0.00,,,0.54,Wunderground v.1.15,2013-06-10 20:40:00,
2013-06-10 16:41:00,72.1,71.5,29.81,NNW,346,0.0,5.0,98,0.00,,,0.54,Wunderground v.1.15,2013-06-10 20:41:00,
2013-06-10 16:42:00,72.1,71.5,29.81,NNW,346,0.0,5.0,98,0.00,,,0.54,Wunderground v.1.15,2013-06-10 20:42:00,
2013-06-10 16:46:00,72.0,71.4,29.81,West,260,0.0,7.0,98,0.00,,,0.54,Wunderground v.1.15,2013-06-10 20:46:00,
2013-06-10 16:48:00,71.8,71.2,29.81,WNW,300,0.0,7.0,98,0.00,,,0.54,Wunderground v.1.15,2013-06-10 20:48:00,
2013-06-10 16:49:00,71.7,71.1,29.81,WNW,288,0.0,7.0,98,0.00,,,0.54,Wunderground v.1.15,2013-06-10 20:49:00,
2013-06-10 16:51:00,71.7,71.1,29.81,SW,232,0.0,7.0,98,0.00,,,0.54,Wunderground v.1.15,2013-06-10 20:51:00,
2013-06-10 16:53:00,71.6,70.7,29.81,SW,232,0.0,7.0,97,0.00,,,0.54,Wunderground v.1.15,2013-06-10 20:53:00,
2013-06-10 16:56:00,71.7,70.8,29.81,SW,232,0.0,7.0,97,0.00,,,0.54,Wunderground v.1.15,2013-06-10 20:56:00,
2013-06-10 16:58:00,71.7,71.1,29.81,SW,232,0.0,7.0,98,0.00,,,0.54,Wunderground v.1.15,2013-06-10 20:58:00,
2013-06-10 16:59:00,71.7,71.1,29.81,SW,234,0.0,7.0,98,0.00,,,0.54,Wunderground v.1.15,2013-06-10 20:59:00,
2013-06-10 17:00:00,71.8,71.2,29.81,SW,234,0.0,7.0,98,0.00,,,0.54,Wunderground v.1.15,2013-06-10 21:00:00,
2013-06-10 17:02:00,71.9,71.3,29.80,NE,49,0.0,7.0,98,0.00,,,0.54,Wunderground v.1.15,2013-06-10 21:02:00,
2013-06-10 17:03:00,72.0,71.4,29.80,NE,49,0.0,7.0,98,0.00,,,0.54,Wunderground v.1.15,2013-06-10 21:03:00,
2013-06-10 17:06:00,72.4,71.8,29.80,NW,313,0.0,7.0,98,0.00,,,0.54,Wunderground v.1.15,2013-06-10 21:06:00,
2013-06-10 17:07:00,72.5,71.9,29.80,NW,313,0.0,7.0,98,0.00,,,0.54,Wunderground v.1.15,2013-06-10 21:07:00,
2013-06-10 17:08:00,72.7,72.1,29.80,NW,313,0.0,7.0,98,0.00,,,0.54,Wunderground v.1.15,2013-06-10 21:08:00,
2013-06-10 17:10:00,73.0,72.4,29.80,NW,313,0.0,7.0,98,0.00,,,0.54,Wunderground v.1.15,2013-06-10 21:10:00,
2013-06-10 17:11:00,73.1,72.5,29.80,NW,313,0.0,7.0,98,0.00,,,0.54,Wunderground v.1.15,2013-06-10 21:11:00,
2013-06-10 17:16:00,73.1,72.2,29.80,WNW,284,0.0,7.0,97,0.00,,,0.54,Wunderground v.1.15,2013-06-10 21:16:00,
2013-06-10 17:17:00,73.1,72.2,29.80,WNW,284,0.0,7.0,97,0.00,,,0.54,Wunderground v.1.15,2013-06-10 21:17:00,
2013-06-10 17:19:00,73.0,72.1,29.79,North,360,0.0,7.0,97,0.00,,,0.54,Wunderground v.1.15,2013-06-10 21:19:00,
2013-06-10 17:21:00,72.9,72.0,29.79,NNE,29,0.0,4.0,97,0.00,,,0.54,Wunderground v.1.15,2013-06-10 21:21:00,
2013-06-10 17:24:00,72.8,71.9,29.79,NNE,29,0.0,4.0,97,0.00,,,0.54,Wunderground v.1.15,2013-06-10 21:24:00,
2013-06-10 17:25:00,72.7,71.8,29.79,NNE,30,0.0,4.0,97,0.00,,,0.54,Wunderground v.1.15,2013-06-10 21:25:00,
2013-06-10 17:26:00,72.7,71.8,29.79,NE,42,0.0,4.0,97,0.00,,,0.54,Wunderground v.1.15,2013-06-10 21:26:00,
2013-06-10 17:31:00,72.4,71.5,29.80,ENE,76,0.0,4.0,97,0.00,,,0.54,Wunderground v.1.15,2013-06-10 21:31:00,
2013-06-10 17:32:00,72.3,71.4,29.79,ENE,76,0.0,4.0,97,0.00,,,0.54,Wunderground v.1.15,2013-06-10 21:32:00,
2013-06-10 17:34:00,72.2,71.0,29.79,ENE,76,0.0,4.0,96,0.00,,,0.54,Wunderground v.1.15,2013-06-10 21:34:00,
2013-06-10 17:37:00,72.2,71.3,29.79,ENE,76,0.0,4.0,97,0.00,,,0.54,Wunderground v.1.15,2013-06-10 21:37:00,
2013-06-10 17:38:00,72.1,71.2,29.79,ENE,76,0.0,4.0,97,0.00,,,0.54,Wunderground v.1.15,2013-06-10 21:38:00,
2013-06-10 17:39:00,72.1,71.2,29.79,ENE,76,0.0,4.0,97,0.00,,,0.54,Wunderground v.1.15,2013-06-10 21:39:00,
2013-06-10 17:41:00,72.0,71.1,29.79,East,90,0.0,4.0,97,0.00,,,0.54,Wunderground v.1.15,2013-06-10 21:41:00,
2013-06-10 17:43:00,71.8,70.9,29.79,ESE,117,0.0,4.0,97,0.00,,,0.54,Wunderground v.1.15,2013-06-10 21:43:00,
2013-06-10 17:45:00,71.7,70.8,29.79,ESE,117,0.0,4.0,97,0.00,,,0.54,Wunderground v.1.15,2013-06-10 21:45:00,
2013-06-10 17:46:00,71.6,70.7,29.79,ESE,117,0.0,4.0,97,0.00,,,0.54,Wunderground v.1.15,2013-06-10 21:46:00,
2013-06-10 17:47:00,71.6,70.7,29.79,ESE,117,0.0,4.0,97,0.00,,,0.54,Wunderground v.1.15,2013-06-10 21:47:00,
2013-06-10 17:50:00,71.4,70.5,29.79,SE,133,0.0,3.0,97,0.00,,,0.54,Wunderground v.1.15,2013-06-10 21:50:00,
2013-06-10 17:51:00,71.4,70.5,29.79,SE,133,0.0,3.0,97,0.00,,,0.54,Wunderground v.1.15,2013-06-10 21:51:00,
2013-06-10 17:52:00,71.3,70.4,29.79,SE,133,0.0,3.0,97,0.00,,,0.54,Wunderground v.1.15,2013-06-10 21:52:00,
2013-06-10 17:57:00,71.3,70.4,29.78,SE,128,0.0,3.0,97,0.00,,,0.54,Wunderground v.1.15,2013-06-10 21:57:00,
2013-06-10 17:58:00,71.3,70.4,29.78,SE,128,0.0,3.0,97,0.00,,,0.54,Wunderground v.1.15,2013-06-10 21:58:00,
2013-06-10 18:00:00,71.2,70.3,29.78,SE,128,0.0,3.0,97,0.00,,,0.54,Wunderground v.1.15,2013-06-10 22:00:00,
2013-06-10 18:03:00,71.2,70.3,29.78,East,85,0.0,3.0,97,0.00,,,0.54,Wunderground v.1.15,2013-06-10 22:03:00,
2013-06-10 18:05:00,71.1,70.2,29.79,East,84,0.0,3.0,97,0.00,,,0.54,Wunderground v.1.15,2013-06-10 22:05:00,
2013-06-10 18:06:00,71.1,70.2,29.78,East,85,0.0,3.0,97,0.00,,,0.54,Wunderground v.1.15,2013-06-10 22:06:00,
2013-06-10 18:07:00,71.0,70.1,29.78,East,85,0.0,3.0,97,0.00,,,0.54,Wunderground v.1.15,2013-06-10 22:07:00,
2013-06-10 18:10:00,71.0,70.1,29.78,ENE,71,0.0,3.0,97,0.00,,,0.54,Wunderground v.1.15,2013-06-10 22:10:00,
2013-06-10 18:11:00,71.0,70.1,29.78,ENE,71,0.0,3.0,97,0.00,,,0.54,Wunderground v.1.15,2013-06-10 22:11:00,
2013-06-10 18:12:00,70.9,70.0,29.78,ENE,71,0.0,3.0,97,0.00,,,0.54,Wunderground v.1.15,2013-06-10 22:12:00,
2013-06-10 18:13:00,70.9,70.0,29.78,ENE,71,0.0,5.0,97,0.00,,,0.54,Wunderground v.1.15,2013-06-10 22:13:00,
2013-06-10 18:15:00,70.9,70.0,29.78,ESE,123,0.0,5.0,97,0.00,,,0.54,Wunderground v.1.15,2013-06-10 22:15:00,
2013-06-10 18:16:00,70.8,69.9,29.78,NNW,346,0.0,5.0,97,0.00,,,0.54,Wunderground v.1.15,2013-06-10 22:16:00,
2013-06-10 18:18:00,70.8,69.9,29.78,NNW,348,1.0,5.0,97,0.00,,,0.54,Wunderground v.1.15,2013-06-10 22:18:00,
2013-06-10 18:21:00,70.6,69.7,29.78,NNW,348,0.0,5.0,97,0.00,,,0.54,Wunderground v.1.15,2013-06-10 22:21:00,
2013-06-10 18:22:00,70.6,69.7,29.78,NNW,348,0.0,5.0,97,0.00,,,0.54,Wunderground v.1.15,2013-06-10 22:22:00,
2013-06-10 18:24:00,70.6,70.0,29.78,North,349,0.0,5.0,98,0.00,,,0.54,Wunderground v.1.15,2013-06-10 22:24:00,
2013-06-10 18:25:00,70.6,70.0,29.78,NE,52,0.0,5.0,98,0.00,,,0.54,Wunderground v.1.15,2013-06-10 22:25:00,
2013-06-10 18:26:00,70.6,70.0,29.78,NE,51,0.0,5.0,98,0.00,,,0.54,Wunderground v.1.15,2013-06-10 22:26:00,
2013-06-10 18:28:00,70.5,69.9,29.78,East,98,0.0,5.0,98,0.00,,,0.54,Wunderground v.1.15,2013-06-10 22:28:00,
2013-06-10 18:30:00,70.5,69.9,29.78,East,92,0.0,5.0,98,0.00,,,0.55,Wunderground v.1.15,2013-06-10 22:30:00,
2013-06-10 18:31:00,70.5,69.9,29.77,ENE,60,0.0,5.0,98,0.00,,,0.55,Wunderground v.1.15,2013-06-10 22:31:00,
2013-06-10 18:32:00,70.5,69.9,29.77,ENE,69,0.0,5.0,98,0.00,,,0.55,Wunderground v.1.15,2013-06-10 22:32:00,
2013-06-10 18:34:00,70.5,69.9,29.77,NNE,26,0.0,5.0,98,0.12,,,0.56,Wunderground v.1.15,2013-06-10 22:34:00,
2013-06-10 18:35:00,70.5,69.9,29.77,NNW,327,0.0,5.0,98,0.12,,,0.56,Wunderground v.1.15,2013-06-10 22:35:00,
2013-06-10 18:36:00,70.4,69.8,29.77,NW,311,0.0,5.0,98,0.12,,,0.56,Wunderground v.1.15,2013-06-10 22:36:00,
2013-06-10 18:37:00,70.4,69.8,29.78,WSW,238,0.0,6.0,98,0.26,,,0.57,Wunderground v.1.15,2013-06-10 22:37:00,
2013-06-10 18:38:00,70.1,69.2,29.78,West,263,1.0,6.0,97,0.26,,,0.57,Wunderground v.1.15,2013-06-10 22:38:00,
2013-06-10 18:41:00,68.6,67.4,29.78,WSW,252,2.0,5.0,96,0.13,,,0.57,Wunderground v.1.15,2013-06-10 22:41:00,
2013-06-10 18:42:00,68.2,67.0,29.78,West,261,2.0,5.0,96,0.12,,,0.58,Wunderground v.1.15,2013-06-10 22:42:00,
2013-06-10 18:45:00,67.3,66.1,29.78,WSW,244,2.0,11.0,96,0.20,,,0.59,Wunderground v.1.15,2013-06-10 22:45:00,
2013-06-10 18:47:00,66.9,65.7,29.78,West,277,3.0,11.0,96,0.20,,,0.59,Wunderground v.1.15,2013-06-10 22:47:00,
2013-06-10 18:49:00,66.6,65.7,29.77,West,277,2.0,11.0,97,0.13,,,0.59,Wunderground v.1.15,2013-06-10 22:49:00,
2013-06-10 18:52:00,66.3,65.4,29.77,West,277,1.0,11.0,97,0.08,,,0.59,Wunderground v.1.15,2013-06-10 22:52:00,
2013-06-10 18:54:00,66.1,65.2,29.77,West,277,1.0,11.0,97,0.07,,,0.60,Wunderground v.1.15,2013-06-10 22:54:00,
2013-06-10 18:56:00,66.0,65.1,29.77,West,277,0.0,11.0,97,0.07,,,0.60,Wunderground v.1.15,2013-06-10 22:56:00,
2013-06-10 18:57:00,66.0,65.1,29.77,West,277,0.0,11.0,97,0.07,,,0.60,Wunderground v.1.15,2013-06-10 22:57:00,
2013-06-10 18:59:00,65.9,65.3,29.77,West,277,0.0,11.0,98,0.10,,,0.61,Wunderground v.1.15,2013-06-10 22:59:00,
2013-06-10 19:04:00,65.8,65.2,29.77,West,277,0.0,11.0,98,0.10,,,0.61,Wunderground v.1.15,2013-06-10 23:04:00,
2013-06-10 19:05:00,65.8,65.2,29.77,West,277,0.0,11.0,98,0.09,,,0.62,Wunderground v.1.15,2013-06-10 23:05:00,
2013-06-10 19:06:00,65.8,65.2,29.77,West,277,0.0,11.0,98,0.09,,,0.62,Wunderground v.1.15,2013-06-10 23:06:00,
2013-06-10 19:07:00,65.8,65.2,29.77,West,277,0.0,11.0,98,0.09,,,0.62,Wunderground v.1.15,2013-06-10 23:07:00,
2013-06-10 19:11:00,65.8,65.2,29.77,WNW,291,1.0,11.0,98,0.20,,,0.63,Wunderground v.1.15,2013-06-10 23:11:00,
2013-06-10 19:12:00,65.8,65.2,29.78,NNW,334,1.0,11.0,98,0.14,,,0.63,Wunderground v.1.15,2013-06-10 23:12:00,
2013-06-10 19:15:00,65.8,65.2,29.78,NW,314,1.0,11.0,98,0.08,,,0.63,Wunderground v.1.15,2013-06-10 23:15:00,
2013-06-10 19:16:00,65.9,65.3,29.78,NW,315,1.0,11.0,98,0.08,,,0.63,Wunderground v.1.15,2013-06-10 23:16:00,
2013-06-10 19:18:00,65.9,65.3,29.78,WNW,294,1.0,11.0,98,0.06,,,0.63,Wunderground v.1.15,2013-06-10 23:18:00,
2013-06-10 19:19:00,65.8,65.2,29.78,WNW,294,1.0,11.0,98,0.05,,,0.63,Wunderground v.1.15,2013-06-10 23:19:00,
2013-06-10 19:21:00,65.8,65.2,29.78,WNW,294,0.0,6.0,98,0.05,,,0.63,Wunderground v.1.15,2013-06-10 23:21:00,
2013-06-10 19:22:00,65.9,65.3,29.78,WNW,295,0.0,6.0,98,0.04,,,0.63,Wunderground v.1.15,2013-06-10 23:22:00,
2013-06-10 19:24:00,65.9,65.3,29.78,WNW,294,0.0,6.0,98,0.04,,,0.64,Wunderground v.1.15,2013-06-10 23:24:00,
2013-06-10 19:25:00,65.9,65.3,29.79,WNW,294,0.0,6.0,98,0.04,,,0.64,Wunderground v.1.15,2013-06-10 23:25:00,
2013-06-10 19:29:00,66.0,65.7,29.78,WNW,302,0.0,6.0,99,0.04,,,0.64,Wunderground v.1.15,2013-06-10 23:29:00,
2013-06-10 19:30:00,66.0,65.7,29.78,WNW,290,0.0,6.0,99,0.04,,,0.64,Wunderground v.1.15,2013-06-10 23:30:00,
2013-06-10 19:31:00,66.0,65.7,29.78,WNW,290,0.0,6.0,99,0.04,,,0.64,Wunderground v.1.15,2013-06-10 23:31:00,
2013-06-10 19:33:00,66.1,65.8,29.78,WNW,290,0.0,6.0,99,0.04,,,0.64,Wunderground v.1.15,2013-06-10 23:33:00,
2013-06-10 19:34:00,66.1,65.8,29.78,WNW,290,0.0,6.0,99,0.04,,,0.64,Wunderground v.1.15,2013-06-10 23:34:00,
2013-06-10 19:37:00,66.1,65.8,29.79,WNW,290,0.0,6.0,99,0.04,,,0.64,Wunderground v.1.15,2013-06-10 23:37:00,
2013-06-10 19:38:00,66.1,65.8,29.79,WNW,290,0.0,6.0,99,0.04,,,0.64,Wunderground v.1.15,2013-06-10 23:38:00,
2013-06-10 19:39:00,66.0,65.7,29.79,WNW,290,0.0,6.0,99,0.04,,,0.64,Wunderground v.1.15,2013-06-10 23:39:00,
2013-06-10 19:41:00,66.1,65.8,29.79,WNW,290,0.0,6.0,99,0.00,,,0.64,Wunderground v.1.15,2013-06-10 23:41:00,
2013-06-10 19:44:00,66.0,65.7,29.79,WNW,290,0.0,6.0,99,0.00,,,0.64,Wunderground v.1.15,2013-06-10 23:44:00,
2013-06-10 19:45:00,66.0,65.7,29.79,WNW,290,0.0,6.0,99,0.00,,,0.64,Wunderground v.1.15,2013-06-10 23:45:00,
2013-06-10 19:50:00,66.0,65.4,29.78,NNW,336,0.0,3.0,98,0.00,,,0.64,Wunderground v.1.15,2013-06-10 23:50:00,
2013-06-10 19:51:00,66.0,65.7,29.78,NNW,335,0.0,3.0,99,0.00,,,0.64,Wunderground v.1.15,2013-06-10 23:51:00,
2013-06-10 19:53:00,65.9,65.6,29.78,NNW,335,0.0,3.0,99,0.00,,,0.64,Wunderground v.1.15,2013-06-10 23:53:00,
2013-06-10 19:56:00,65.9,65.6,29.77,NNW,334,0.0,3.0,99,0.00,,,0.64,Wunderground v.1.15,2013-06-10 23:56:00,
2013-06-10 19:57:00,65.9,65.6,29.78,NNW,334,0.0,3.0,99,0.00,,,0.64,Wunderground v.1.15,2013-06-10 23:57:00,
2013-06-10 19:58:00,65.9,65.6,29.77,NNW,334,0.0,3.0,99,0.00,,,0.64,Wunderground v.1.15,2013-06-10 23:58:00,
2013-06-10 20:00:00,65.8,65.5,29.77,NNW,329,0.0,3.0,99,0.00,,,0.64,Wunderground v.1.15,2013-06-11 00:00:00,
2013-06-10 20:02:00,65.9,65.6,29.77,NNW,329,1.0,3.0,99,0.00,,,0.64,Wunderground v.1.15,2013-06-11 00:02:00,
2013-06-10 20:03:00,65.8,65.5,29.76,NNW,330,0.0,3.0,99,0.00,,,0.64,Wunderground v.1.15,2013-06-11 00:03:00,
2013-06-10 20:04:00,65.8,65.5,29.76,NNW,330,0.0,3.0,99,0.00,,,0.64,Wunderground v.1.15,2013-06-11 00:04:00,
2013-06-10 20:05:00,65.8,65.5,29.76,NNW,330,0.0,3.0,99,0.00,,,0.64,Wunderground v.1.15,2013-06-11 00:05:00,
2013-06-10 20:06:00,65.8,65.5,29.76,NNW,330,0.0,3.0,99,0.00,,,0.64,Wunderground v.1.15,2013-06-11 00:06:00,
2013-06-10 20:08:00,65.8,65.5,29.76,NNW,330,0.0,3.0,99,0.00,,,0.64,Wunderground v.1.15,2013-06-11 00:08:00,
2013-06-10 20:09:00,65.8,65.5,29.76,NNW,330,0.0,3.0,99,0.00,,,0.64,Wunderground v.1.15,2013-06-11 00:09:00,
2013-06-10 20:11:00,65.8,65.5,29.76,NNW,330,0.0,3.0,99,0.00,,,0.64,Wunderground v.1.15,2013-06-11 00:11:00,
2013-06-10 20:12:00,65.8,65.5,29.76,NNW,330,0.0,3.0,99,0.00,,,0.64,Wunderground v.1.15,2013-06-11 00:12:00,
2013-06-10 20:16:00,65.7,65.4,29.77,NNW,330,0.0,3.0,99,0.00,,,0.64,Wunderground v.1.15,2013-06-11 00:16:00,
2013-06-10 20:17:00,65.7,65.4,29.77,NNW,330,0.0,3.0,99,0.00,,,0.64,Wunderground v.1.15,2013-06-11 00:17:00,
2013-06-10 20:19:00,65.7,65.4,29.77,NNW,330,0.0,3.0,99,0.00,,,0.64,Wunderground v.1.15,2013-06-11 00:19:00,
2013-06-10 20:23:00,65.6,65.3,29.78,NNW,330,0.0,3.0,99,0.00,,,0.64,Wunderground v.1.15,2013-06-11 00:23:00,
2013-06-10 20:24:00,65.7,65.4,29.78,NNW,330,0.0,3.0,99,0.00,,,0.64,Wunderground v.1.15,2013-06-11 00:24:00,
2013-06-10 20:28:00,65.6,65.3,29.78,NNW,329,0.0,3.0,99,0.00,,,0.64,Wunderground v.1.15,2013-06-11 00:28:00,
2013-06-10 20:29:00,65.7,65.4,29.78,NNW,329,0.0,3.0,99,0.00,,,0.64,Wunderground v.1.15,2013-06-11 00:29:00,
2013-06-10 20:31:00,65.7,65.4,29.79,NNW,329,1.0,3.0,99,0.00,,,0.64,Wunderground v.1.15,2013-06-11 00:31:00,
2013-06-10 20:33:00,65.6,65.3,29.79,NNW,329,1.0,3.0,99,0.00,,,0.64,Wunderground v.1.15,2013-06-11 00:33:00,
2013-06-10 20:36:00,65.6,65.3,29.79,NNW,329,1.0,3.0,99,0.00,,,0.64,Wunderground v.1.15,2013-06-11 00:36:00,
2013-06-10 20:37:00,65.6,65.3,29.79,NNW,329,1.0,3.0,99,0.00,,,0.64,Wunderground v.1.15,2013-06-11 00:37:00,
2013-06-10 20:39:00,65.6,65.3,29.79,NNW,329,1.0,3.0,99,0.00,,,0.64,Wunderground v.1.15,2013-06-11 00:39:00,
2013-06-10 20:42:00,65.6,65.3,29.79,NNW,329,0.0,3.0,99,0.00,,,0.64,Wunderground v.1.15,2013-06-11 00:42:00,
2013-06-10 20:43:00,65.6,65.3,29.79,NNW,329,0.0,3.0,99,0.00,,,0.64,Wunderground v.1.15,2013-06-11 00:43:00,
2013-06-10 20:45:00,65.5,65.2,29.79,NNW,329,0.0,3.0,99,0.00,,,0.64,Wunderground v.1.15,2013-06-11 00:45:00,
2013-06-10 20:46:00,65.5,65.2,29.79,NNW,329,0.0,3.0,99,0.00,,,0.64,Wunderground v.1.15,2013-06-11 00:46:00,
2013-06-10 20:48:00,65.4,65.1,29.79,NNW,329,0.0,3.0,99,0.00,,,0.64,Wunderground v.1.15,2013-06-11 00:48:00,
2013-06-10 20:49:00,65.4,65.1,29.79,NNW,329,0.0,3.0,99,0.00,,,0.64,Wunderground v.1.15,2013-06-11 00:49:00,
2013-06-10 20:51:00,65.4,65.1,29.79,NNW,329,0.0,3.0,99,0.00,,,0.64,Wunderground v.1.15,2013-06-11 00:51:00,
2013-06-10 20:54:00,65.4,65.1,29.79,NNW,329,1.0,3.0,99,0.00,,,0.64,Wunderground v.1.15,2013-06-11 00:54:00,
2013-06-10 20:55:00,65.4,65.1,29.79,NNW,329,1.0,3.0,99,0.00,,,0.64,Wunderground v.1.15,2013-06-11 00:55:00,
2013-06-10 20:59:00,65.4,65.1,29.79,NNW,329,1.0,3.0,99,0.00,,,0.64,Wunderground v.1.15,2013-06-11 00:59:00,
2013-06-10 21:00:00,65.4,65.1,29.79,NNW,329,1.0,1.0,99,0.00,,,0.64,Wunderground v.1.15,2013-06-11 01:00:00,
2013-06-10 21:01:00,65.4,65.1,29.79,NNW,329,1.0,3.0,99,0.00,,,0.64,Wunderground v.1.15,2013-06-11 01:01:00,
2013-06-10 21:03:00,65.4,65.1,29.78,NNW,329,0.0,3.0,99,0.00,,,0.64,Wunderground v.1.15,2013-06-11 01:03:00,
2013-06-10 21:05:00,65.4,65.1,29.78,NNW,329,0.0,3.0,99,0.00,,,0.64,Wunderground v.1.15,2013-06-11 01:05:00,
2013-06-10 21:08:00,65.3,65.0,29.79,NW,326,0.0,3.0,99,0.00,,,0.64,Wunderground v.1.15,2013-06-11 01:08:00,
2013-06-10 21:09:00,65.4,65.1,29.79,NW,326,0.0,3.0,99,0.00,,,0.64,Wunderground v.1.15,2013-06-11 01:09:00,
2013-06-10 21:11:00,65.4,65.1,29.79,NW,326,0.0,3.0,99,0.00,,,0.64,Wunderground v.1.15,2013-06-11 01:11:00,
2013-06-10 21:12:00,65.3,65.0,29.80,NW,326,0.0,3.0,99,0.00,,,0.64,Wunderground v.1.15,2013-06-11 01:12:00,
2013-06-10 21:14:00,65.3,65.0,29.79,NW,326,0.0,3.0,99,0.00,,,0.64,Wunderground v.1.15,2013-06-11 01:14:00,
2013-06-10 21:15:00,65.4,65.1,29.80,NW,326,0.0,3.0,99,0.00,,,0.64,Wunderground v.1.15,2013-06-11 01:15:00,
2013-06-10 21:17:00,65.3,65.0,29.79,NW,326,0.0,3.0,99,0.00,,,0.64,Wunderground v.1.15,2013-06-11 01:17:00,
2013-06-10 21:20:00,65.3,65.0,29.80,NW,326,0.0,3.0,99,0.00,,,0.64,Wunderground v.1.15,2013-06-11 01:20:00,
2013-06-10 21:22:00,65.4,65.1,29.80,NW,326,0.0,3.0,99,0.00,,,0.64,Wunderground v.1.15,2013-06-11 01:22:00,
2013-06-10 21:23:00,65.4,65.1,29.80,NW,326,0.0,3.0,99,0.00,,,0.64,Wunderground v.1.15,2013-06-11 01:23:00,
2013-06-10 21:24:00,65.4,65.1,29.80,NW,326,0.0,3.0,99,0.00,,,0.64,Wunderground v.1.15,2013-06-11 01:24:00,
2013-06-10 21:25:00,65.4,65.1,29.80,NW,326,0.0,3.0,99,0.00,,,0.64,Wunderground v.1.15,2013-06-11 01:25:00,
2013-06-10 21:26:00,65.4,65.1,29.80,NW,326,0.0,3.0,99,0.00,,,0.64,Wunderground v.1.15,2013-06-11 01:26:00,
2013-06-10 21:29:00,65.4,65.1,29.80,NW,326,0.0,3.0,99,0.00,,,0.64,Wunderground v.1.15,2013-06-11 01:29:00,
2013-06-10 21:32:00,65.4,65.1,29.80,NW,326,0.0,3.0,99,0.00,,,0.64,Wunderground v.1.15,2013-06-11 01:32:00,
2013-06-10 21:33:00,65.4,65.1,29.80,NW,326,0.0,3.0,99,0.00,,,0.64,Wunderground v.1.15,2013-06-11 01:33:00,
2013-06-10 21:34:00,65.4,65.1,29.80,NW,326,0.0,3.0,99,0.00,,,0.64,Wunderground v.1.15,2013-06-11 01:34:00,
2013-06-10 21:35:00,65.4,65.1,29.80,NW,326,0.0,3.0,99,0.00,,,0.64,Wunderground v.1.15,2013-06-11 01:35:00,
2013-06-10 21:36:00,65.4,65.1,29.80,NW,326,0.0,3.0,99,0.00,,,0.64,Wunderground v.1.15,2013-06-11 01:36:00,
2013-06-10 21:40:00,65.4,65.1,29.80,NNW,332,0.0,3.0,99,0.00,,,0.64,Wunderground v.1.15,2013-06-11 01:40:00,
2013-06-10 21:41:00,65.4,65.1,29.80,NNW,331,0.0,3.0,99,0.00,,,0.64,Wunderground v.1.15,2013-06-11 01:41:00,
2013-06-10 21:42:00,65.4,65.1,29.80,NNW,331,0.0,3.0,99,0.00,,,0.64,Wunderground v.1.15,2013-06-11 01:42:00,
2013-06-10 21:45:00,65.4,65.1,29.80,NNW,331,1.0,3.0,99,0.00,,,0.64,Wunderground v.1.15,2013-06-11 01:45:00,
2013-06-10 21:47:00,65.4,65.1,29.80,NNW,330,1.0,3.0,99,0.00,,,0.64,Wunderground v.1.15,2013-06-11 01:47:00,
2013-06-10 21:48:00,65.4,65.1,29.80,NNW,331,0.0,3.0,99,0.00,,,0.64,Wunderground v.1.15,2013-06-11 01:48:00,
2013-06-10 21:49:00,65.4,65.1,29.80,NNW,331,0.0,3.0,99,0.00,,,0.64,Wunderground v.1.15,2013-06-11 01:49:00,
2013-06-10 21:53:00,65.4,65.1,29.80,NNW,331,0.0,3.0,99,0.00,,,0.65,Wunderground v.1.15,2013-06-11 01:53:00,
2013-06-10 21:55:00,65.4,65.1,29.80,NNW,331,0.0,3.0,99,0.00,,,0.65,Wunderground v.1.15,2013-06-11 01:55:00,
2013-06-10 21:56:00,65.4,65.1,29.80,NNW,330,0.0,3.0,99,0.00,,,0.65,Wunderground v.1.15,2013-06-11 01:56:00,
2013-06-10 21:57:00,65.4,65.1,29.80,NNW,331,0.0,3.0,99,0.00,,,0.65,Wunderground v.1.15,2013-06-11 01:57:00,
2013-06-10 22:01:00,65.4,65.1,29.81,NNW,330,0.0,3.0,99,0.00,,,0.65,Wunderground v.1.15,2013-06-11 02:01:00,
2013-06-10 22:02:00,65.4,65.1,29.81,NNW,330,0.0,3.0,99,0.00,,,0.65,Wunderground v.1.15,2013-06-11 02:02:00,
2013-06-10 22:06:00,65.3,65.0,29.81,NNW,330,0.0,3.0,99,0.00,,,0.65,Wunderground v.1.15,2013-06-11 02:06:00,
2013-06-10 22:08:00,65.3,65.0,29.81,NNW,331,0.0,3.0,99,0.00,,,0.65,Wunderground v.1.15,2013-06-11 02:08:00,
2013-06-10 22:09:00,65.3,65.0,29.81,NNW,331,0.0,3.0,99,0.00,,,0.65,Wunderground v.1.15,2013-06-11 02:09:00,
2013-06-10 22:13:00,65.3,65.0,29.81,NNW,331,0.0,3.0,99,0.00,,,0.65,Wunderground v.1.15,2013-06-11 02:13:00,
2013-06-10 22:14:00,65.3,65.0,29.81,NNW,331,0.0,3.0,99,0.00,,,0.65,Wunderground v.1.15,2013-06-11 02:14:00,
2013-06-10 22:16:00,65.2,64.9,29.81,NNW,331,0.0,3.0,99,0.00,,,0.65,Wunderground v.1.15,2013-06-11 02:16:00,
2013-06-10 22:17:00,65.2,64.9,29.81,NNW,331,0.0,3.0,99,0.00,,,0.65,Wunderground v.1.15,2013-06-11 02:17:00,
2013-06-10 22:18:00,65.2,64.9,29.81,NNW,330,0.0,3.0,99,0.00,,,0.65,Wunderground v.1.15,2013-06-11 02:18:00,
2013-06-10 22:20:00,65.2,64.9,29.81,NNW,330,0.0,3.0,99,0.00,,,0.65,Wunderground v.1.15,2013-06-11 02:20:00,
2013-06-10 22:24:00,65.2,64.9,29.81,NNW,331,0.0,3.0,99,0.00,,,0.65,Wunderground v.1.15,2013-06-11 02:24:00,
2013-06-10 22:25:00,65.2,64.9,29.81,NNW,330,0.0,3.0,99,0.00,,,0.65,Wunderground v.1.15,2013-06-11 02:25:00,
2013-06-10 22:26:00,65.2,64.9,29.80,NNW,330,0.0,3.0,99,0.00,,,0.65,Wunderground v.1.15,2013-06-11 02:26:00,
2013-06-10 22:27:00,65.2,64.9,29.80,NNW,331,0.0,3.0,99,0.00,,,0.65,Wunderground v.1.15,2013-06-11 02:27:00,
2013-06-10 22:31:00,65.1,64.8,29.80,NNW,330,0.0,3.0,99,0.00,,,0.65,Wunderground v.1.15,2013-06-11 02:31:00,
2013-06-10 22:32:00,65.1,64.8,29.80,NNW,330,0.0,3.0,99,0.00,,,0.65,Wunderground v.1.15,2013-06-11 02:32:00,
2013-06-10 22:34:00,65.1,64.8,29.80,NNW,331,0.0,3.0,99,0.00,,,0.65,Wunderground v.1.15,2013-06-11 02:34:00,
2013-06-10 22:35:00,65.1,64.8,29.80,NNW,330,0.0,3.0,99,0.00,,,0.65,Wunderground v.1.15,2013-06-11 02:35:00,
2013-06-10 22:36:00,65.1,64.8,29.80,NNW,331,0.0,3.0,99,0.00,,,0.65,Wunderground v.1.15,2013-06-11 02:36:00,
2013-06-10 22:38:00,65.0,64.7,29.80,NNW,330,0.0,3.0,99,0.00,,,0.65,Wunderground v.1.15,2013-06-11 02:38:00,
2013-06-10 22:39:00,65.0,64.7,29.80,NNW,331,0.0,3.0,99,0.00,,,0.65,Wunderground v.1.15,2013-06-11 02:39:00,
2013-06-10 22:40:00,65.0,64.7,29.80,NNW,330,0.0,3.0,99,0.00,,,0.65,Wunderground v.1.15,2013-06-11 02:40:00,
2013-06-10 22:41:00,65.0,64.7,29.81,NNW,330,0.0,3.0,99,0.00,,,0.65,Wunderground v.1.15,2013-06-11 02:41:00,
2013-06-10 22:42:00,65.0,64.7,29.81,NNW,331,0.0,3.0,99,0.00,,,0.65,Wunderground v.1.15,2013-06-11 02:42:00,
2013-06-10 22:45:00,65.0,64.7,29.81,NNW,331,0.0,3.0,99,0.00,,,0.65,Wunderground v.1.15,2013-06-11 02:45:00,
2013-06-10 22:48:00,64.9,64.6,29.81,NNW,331,0.0,3.0,99,0.00,,,0.65,Wunderground v.1.15,2013-06-11 02:48:00,
2013-06-10 22:49:00,64.9,64.6,29.81,NNW,331,0.0,3.0,99,0.00,,,0.65,Wunderground v.1.15,2013-06-11 02:49:00,
2013-06-10 22:51:00,64.9,64.6,29.81,NNW,331,0.0,3.0,99,0.00,,,0.65,Wunderground v.1.15,2013-06-11 02:51:00,
2013-06-10 22:52:00,64.9,64.6,29.81,NNW,331,0.0,3.0,99,0.00,,,0.65,Wunderground v.1.15,2013-06-11 02:52:00,
2013-06-10 22:53:00,64.8,64.5,29.81,NNW,331,0.0,3.0,99,0.00,,,0.65,Wunderground v.1.15,2013-06-11 02:53:00,
2013-06-10 22:57:00,64.8,64.5,29.81,NNW,331,0.0,3.0,99,0.00,,,0.65,Wunderground v.1.15,2013-06-11 02:57:00,
2013-06-10 22:59:00,64.7,64.4,29.81,NNW,331,0.0,3.0,99,0.00,,,0.65,Wunderground v.1.15,2013-06-11 02:59:00,
2013-06-10 23:00:00,64.7,64.4,29.81,NNW,330,0.0,3.0,99,0.00,,,0.65,Wunderground v.1.15,2013-06-11 03:00:00,
2013-06-10 23:03:00,64.7,64.4,29.81,NNW,331,0.0,3.0,99,0.00,,,0.65,Wunderground v.1.15,2013-06-11 03:03:00,
2013-06-10 23:04:00,64.7,64.4,29.81,NNW,331,0.0,3.0,99,0.00,,,0.65,Wunderground v.1.15,2013-06-11 03:04:00,
2013-06-10 23:05:00,64.6,64.3,29.81,NNW,331,0.0,3.0,99,0.00,,,0.65,Wunderground v.1.15,2013-06-11 03:05:00,
2013-06-10 23:07:00,64.6,64.3,29.81,NNW,331,0.0,3.0,99,0.00,,,0.65,Wunderground v.1.15,2013-06-11 03:07:00,
2013-06-10 23:09:00,64.6,64.3,29.81,NNW,331,0.0,3.0,99,0.00,,,0.65,Wunderground v.1.15,2013-06-11 03:09:00,
2013-06-10 23:12:00,64.5,64.2,29.81,NNW,330,0.0,3.0,99,0.00,,,0.65,Wunderground v.1.15,2013-06-11 03:12:00,
2013-06-10 23:13:00,64.5,64.2,29.81,NNW,331,0.0,3.0,99,0.00,,,0.65,Wunderground v.1.15,2013-06-11 03:13:00,
2013-06-10 23:14:00,64.5,64.2,29.81,NNW,331,0.0,3.0,99,0.00,,,0.65,Wunderground v.1.15,2013-06-11 03:14:00,
2013-06-10 23:17:00,64.4,64.1,29.81,NNW,330,0.0,3.0,99,0.00,,,0.65,Wunderground v.1.15,2013-06-11 03:17:00,
2013-06-10 23:20:00,64.3,64.0,29.81,NNW,331,0.0,0.0,99,0.00,,,0.65,Wunderground v.1.15,2013-06-11 03:20:00,
2013-06-10 23:21:00,64.3,64.0,29.81,NNW,331,0.0,0.0,99,0.00,,,0.65,Wunderground v.1.15,2013-06-11 03:21:00,
2013-06-10 23:22:00,64.3,64.0,29.81,NNW,330,0.0,1.0,99,0.00,,,0.65,Wunderground v.1.15,2013-06-11 03:22:00,
2013-06-10 23:27:00,64.4,64.1,29.81,NNW,332,0.0,2.0,99,0.00,,,0.65,Wunderground v.1.15,2013-06-11 03:27:00,
2013-06-10 23:28:00,64.5,64.2,29.81,NNW,331,0.0,2.0,99,0.00,,,0.65,Wunderground v.1.15,2013-06-11 03:28:00,
2013-06-10 23:31:00,64.5,64.2,29.81,NNW,333,0.0,0.0,99,0.00,,,0.65,Wunderground v.1.15,2013-06-11 03:31:00,
2013-06-10 23:34:00,64.5,64.2,29.81,NNW,331,0.0,2.0,99,0.00,,,0.65,Wunderground v.1.15,2013-06-11 03:34:00,
2013-06-10 23:35:00,64.5,64.2,29.81,NNW,331,0.0,2.0,99,0.00,,,0.65,Wunderground v.1.15,2013-06-11 03:35:00,
2013-06-10 23:37:00,64.6,64.3,29.81,NW,308,1.0,2.0,99,0.00,,,0.65,Wunderground v.1.15,2013-06-11 03:37:00,
2013-06-10 23:38:00,64.6,64.3,29.81,NW,307,1.0,2.0,99,0.00,,,0.65,Wunderground v.1.15,2013-06-11 03:38:00,
2013-06-10 23:40:00,64.6,64.3,29.82,NW,307,0.0,0.0,99,0.00,,,0.65,Wunderground v.1.15,2013-06-11 03:40:00,
2013-06-10 23:43:00,64.6,64.3,29.82,NW,307,0.0,2.0,99,0.00,,,0.65,Wunderground v.1.15,2013-06-11 03:43:00,
2013-06-10 23:44:00,64.6,64.3,29.82,NW,307,0.0,3.0,99,0.00,,,0.65,Wunderground v.1.15,2013-06-11 03:44:00,
2013-06-10 23:46:00,64.6,64.3,29.82,NW,308,1.0,3.0,99,0.00,,,0.65,Wunderground v.1.15,2013-06-11 03:46:00,
2013-06-10 23:47:00,64.6,64.3,29.82,NW,308,1.0,3.0,99,0.00,,,0.65,Wunderground v.1.15,2013-06-11 03:47:00,
2013-06-10 23:48:00,64.6,64.3,29.81,NW,307,1.0,3.0,99,0.00,,,0.65,Wunderground v.1.15,2013-06-11 03:48:00,
2013-06-10 23:50:00,64.6,64.3,29.81,NW,307,1.0,1.0,99,0.00,,,0.65,Wunderground v.1.15,2013-06-11 03:50:00,
2013-06-10 23:53:00,64.6,64.3,29.81,NW,308,0.0,3.0,99,0.00,,,0.65,Wunderground v.1.15,2013-06-11 03:53:00,
2013-06-10 23:54:00,64.6,64.3,29.81,NW,308,0.0,3.0,99,0.00,,,0.65,Wunderground v.1.15,2013-06-11 03:54:00,
2013-06-10 23:55:00,64.6,64.3,29.81,NW,308,0.0,3.0,99,0.00,,,0.65,Wunderground v.1.15,2013-06-11 03:55:00,